Time,TemperatureF,DewpointF,PressureIn,WindDirection,WindDirectionDegrees,WindSpeedMPH,WindSpeedGustMPH,Humidity,HourlyPrecipIn,Conditions,Clouds,dailyrainin,SolarRadiationWatts/m^2,SoftwareType,DateUTC
2013-04-27 00:02:00,68.0,66.0,-100.00,SSE,150,10.0,20.0,93,0.00,,,0.00,0.000000,,2013-04-27 05:02:00,
2013-04-27 00:32:00,69.0,67.0,-100.00,SSW,194,5.0,14.0,93,0.00,,,0.00,0.000000,,2013-04-27 05:32:00,
2013-04-27 00:42:00,69.0,67.0,-100.00,SSW,194,5.0,14.0,93,0.00,,,0.00,0.000000,,2013-04-27 05:42:00,
2013-04-27 00:52:00,69.0,67.0,-100.00,SSW,194,5.0,14.0,93,0.00,,,0.00,0.000000,,2013-04-27 05:52:00,
2013-04-27 01:02:00,69.0,67.0,-100.00,SSW,194,5.0,14.0,93,0.00,,,0.00,0.000000,,2013-04-27 06:02:00,
2013-04-27 01:32:00,68.0,66.0,-100.00,SSW,192,1.0,6.0,93,0.00,,,0.00,0.000000,,2013-04-27 06:32:00,
2013-04-27 01:42:00,68.0,66.0,-100.00,SSW,192,1.0,6.0,93,0.00,,,0.00,0.000000,,2013-04-27 06:42:00,
2013-04-27 01:52:00,68.0,66.0,-100.00,SSW,192,1.0,6.0,93,0.00,,,0.00,0.000000,,2013-04-27 06:52:00,
2013-04-27 02:01:00,68.0,66.0,-100.00,SSW,192,1.0,6.0,93,0.00,,,0.00,0.000000,,2013-04-27 07:01:00,
2013-04-27 02:32:00,67.0,66.0,-100.00,SW,216,0.0,4.0,96,0.00,,,0.00,0.000000,,2013-04-27 07:32:00,
2013-04-27 02:42:00,67.0,66.0,-100.00,SW,216,0.0,4.0,96,0.00,,,0.00,0.000000,,2013-04-27 07:42:00,
2013-04-27 02:52:00,67.0,66.0,-100.00,SW,216,0.0,4.0,96,0.00,,,0.00,0.000000,,2013-04-27 07:52:00,
2013-04-27 03:01:00,67.0,66.0,-100.00,SW,216,0.0,4.0,96,0.00,,,0.00,0.000000,,2013-04-27 08:01:00,
2013-04-27 03:33:00,67.0,66.0,-100.00,SE,146,4.0,6.0,97,0.00,,,0.00,0.000000,,2013-04-27 08:33:00,
2013-04-27 03:42:00,67.0,66.0,-100.00,SE,146,4.0,6.0,97,0.00,,,0.00,0.000000,,2013-04-27 08:42:00,
2013-04-27 03:52:00,67.0,66.0,-100.00,SE,146,4.0,6.0,97,0.00,,,0.00,0.000000,,2013-04-27 08:52:00,
2013-04-27 04:01:00,67.0,66.0,-100.00,SE,146,4.0,6.0,97,0.00,,,0.00,0.000000,,2013-04-27 09:01:00,
2013-04-27 04:33:00,66.0,65.0,-100.00,SSE,166,4.0,8.0,97,0.00,,,0.00,0.000000,,2013-04-27 09:33:00,
2013-04-27 04:43:00,66.0,65.0,-100.00,SSE,166,4.0,8.0,97,0.00,,,0.00,0.000000,,2013-04-27 09:43:00,
2013-04-27 04:53:00,66.0,65.0,-100.00,SSE,166,4.0,8.0,97,0.00,,,0.00,0.000000,,2013-04-27 09:53:00,
2013-04-27 05:02:00,66.0,65.0,-100.00,SSE,166,4.0,8.0,97,0.00,,,0.00,0.000000,,2013-04-27 10:02:00,
2013-04-27 05:33:00,66.0,65.0,-100.00,SSE,153,6.0,9.0,97,0.00,,,0.00,0.000000,,2013-04-27 10:33:00,
2013-04-27 05:42:00,66.0,65.0,-100.00,SSE,153,6.0,9.0,97,0.00,,,0.00,0.000000,,2013-04-27 10:42:00,
2013-04-27 05:52:00,66.0,65.0,-100.00,SSE,153,6.0,9.0,97,0.00,,,0.00,0.000000,,2013-04-27 10:52:00,
2013-04-27 06:02:00,66.0,65.0,-100.00,SSE,153,6.0,9.0,97,0.00,,,0.00,0.000000,,2013-04-27 11:02:00,
2013-04-27 06:32:00,66.0,65.0,-100.00,SSE,164,4.0,9.0,98,0.00,,,0.00,0.000000,,2013-04-27 11:32:00,
2013-04-27 06:42:00,66.0,65.0,-100.00,SSE,164,4.0,9.0,98,0.00,,,0.00,0.000000,,2013-04-27 11:42:00,
2013-04-27 06:52:00,66.0,65.0,-100.00,SSE,164,4.0,9.0,98,0.00,,,0.00,0.000000,,2013-04-27 11:52:00,
2013-04-27 07:01:00,66.0,65.0,-100.00,SSE,164,4.0,9.0,98,0.00,,,0.00,0.000000,,2013-04-27 12:01:00,
2013-04-27 07:32:00,66.0,65.0,-100.00,South,179,4.0,6.0,98,0.00,,,0.00,5.000000,,2013-04-27 12:32:00,
2013-04-27 07:42:00,66.0,65.0,-100.00,South,179,4.0,6.0,98,0.00,,,0.00,5.000000,,2013-04-27 12:42:00,
2013-04-27 07:52:00,66.0,65.0,-100.00,South,179,4.0,6.0,98,0.00,,,0.00,5.000000,,2013-04-27 12:52:00,
2013-04-27 08:02:00,66.0,65.0,-100.00,South,179,4.0,6.0,98,0.00,,,0.00,5.000000,,2013-04-27 13:02:00,
2013-04-27 08:32:00,68.0,67.0,-100.00,South,182,4.0,8.0,98,0.00,,,0.00,55.000000,,2013-04-27 13:32:00,
2013-04-27 08:42:00,68.0,67.0,-100.00,South,182,4.0,8.0,98,0.00,,,0.00,55.000000,,2013-04-27 13:42:00,
2013-04-27 08:52:00,68.0,67.0,-100.00,South,182,4.0,8.0,98,0.00,,,0.00,55.000000,,2013-04-27 13:52:00,
2013-04-27 09:02:00,68.0,67.0,-100.00,South,182,4.0,8.0,98,0.00,,,0.00,55.000000,,2013-04-27 14:02:00,
2013-04-27 09:32:00,72.0,71.0,-100.00,South,188,5.0,9.0,96,0.00,,,0.00,124.000000,,2013-04-27 14:32:00,
2013-04-27 09:42:00,72.0,71.0,-100.00,South,188,5.0,9.0,96,0.00,,,0.00,124.000000,,2013-04-27 14:42:00,
2013-04-27 09:52:00,72.0,71.0,-100.00,South,188,5.0,9.0,96,0.00,,,0.00,124.000000,,2013-04-27 14:52:00,
2013-04-27 10:01:00,72.0,71.0,-100.00,South,188,5.0,9.0,96,0.00,,,0.00,124.000000,,2013-04-27 15:01:00,
2013-04-27 10:33:00,74.0,69.0,-100.00,South,184,5.0,12.0,84,0.00,,,0.00,178.000000,,2013-04-27 15:33:00,
2013-04-27 10:43:00,74.0,69.0,-100.00,South,184,5.0,12.0,84,0.00,,,0.00,178.000000,,2013-04-27 15:43:00,
2013-04-27 10:53:00,74.0,69.0,-100.00,South,184,5.0,12.0,84,0.00,,,0.00,178.000000,,2013-04-27 15:53:00,
2013-04-27 11:03:00,74.0,69.0,-100.00,South,184,5.0,12.0,84,0.00,,,0.00,178.000000,,2013-04-27 16:03:00,
2013-04-27 11:33:00,76.0,67.0,-100.00,SSW,210,4.0,12.0,73,0.00,,,-99.99,332.000000,,2013-04-27 16:33:00,
2013-04-27 11:42:00,76.0,67.0,-100.00,SSW,210,4.0,12.0,73,0.00,,,-99.99,332.000000,,2013-04-27 16:42:00,
2013-04-27 11:53:00,76.0,67.0,-100.00,SSW,210,4.0,12.0,73,0.00,,,-99.99,332.000000,,2013-04-27 16:53:00,
2013-04-27 12:02:00,76.0,67.0,-100.00,SSW,210,4.0,12.0,73,0.00,,,-99.99,332.000000,,2013-04-27 17:02:00,
2013-04-27 12:32:00,79.0,68.0,-100.00,SSW,205,6.0,13.0,69,0.00,,,0.00,439.000000,,2013-04-27 17:32:00,
2013-04-27 12:42:00,79.0,68.0,-100.00,SSW,205,6.0,13.0,69,0.00,,,0.00,439.000000,,2013-04-27 17:42:00,
2013-04-27 12:53:00,79.0,68.0,-100.00,SSW,205,6.0,13.0,69,0.00,,,0.00,439.000000,,2013-04-27 17:53:00,
2013-04-27 13:02:00,79.0,68.0,-100.00,SSW,205,6.0,13.0,69,0.00,,,0.00,439.000000,,2013-04-27 18:02:00,
2013-04-27 13:32:00,79.0,68.0,-100.00,South,176,6.0,12.0,70,0.00,,,0.00,453.000000,,2013-04-27 18:32:00,
2013-04-27 13:42:00,79.0,68.0,-100.00,South,176,6.0,12.0,70,0.00,,,0.00,453.000000,,2013-04-27 18:42:00,
2013-04-27 13:52:00,79.0,68.0,-100.00,South,176,6.0,12.0,70,0.00,,,0.00,453.000000,,2013-04-27 18:52:00,
2013-04-27 14:02:00,79.0,68.0,-100.00,South,176,6.0,12.0,70,0.00,,,0.00,453.000000,,2013-04-27 19:02:00,
2013-04-27 14:32:00,81.0,69.0,-100.00,South,174,6.0,17.0,67,0.00,,,0.00,668.000000,,2013-04-27 19:32:00,
2013-04-27 14:42:00,81.0,69.0,-100.00,South,174,6.0,17.0,67,0.00,,,0.00,668.000000,,2013-04-27 19:42:00,
2013-04-27 14:53:00,81.0,69.0,-100.00,South,174,6.0,17.0,67,0.00,,,0.00,668.000000,,2013-04-27 19:53:00,
2013-04-27 15:02:00,81.0,69.0,-100.00,South,174,6.0,17.0,67,0.00,,,0.00,668.000000,,2013-04-27 20:02:00,
2013-04-27 15:32:00,80.0,68.0,-100.00,SE,143,8.0,15.0,68,0.00,,,0.00,458.000000,,2013-04-27 20:32:00,
2013-04-27 15:42:00,80.0,68.0,-100.00,SE,143,8.0,15.0,68,0.00,,,0.00,458.000000,,2013-04-27 20:42:00,
2013-04-27 15:52:00,80.0,68.0,-100.00,SE,143,8.0,15.0,68,0.00,,,0.00,458.000000,,2013-04-27 20:52:00,
2013-04-27 16:02:00,80.0,68.0,-100.00,SE,143,8.0,15.0,68,0.00,,,0.00,458.000000,,2013-04-27 21:02:00,
2013-04-27 16:33:00,78.0,67.0,-100.00,South,174,8.0,19.0,70,0.00,,,0.00,266.000000,,2013-04-27 21:33:00,
2013-04-27 16:43:00,78.0,67.0,-100.00,South,174,8.0,19.0,70,0.00,,,0.00,266.000000,,2013-04-27 21:43:00,
2013-04-27 16:53:00,78.0,67.0,-100.00,South,174,8.0,19.0,70,0.00,,,0.00,266.000000,,2013-04-27 21:53:00,
2013-04-27 17:02:00,78.0,67.0,-100.00,South,174,8.0,19.0,70,0.00,,,0.00,266.000000,,2013-04-27 22:02:00,
2013-04-27 17:32:00,77.0,66.0,-100.00,SSE,163,7.0,16.0,70,0.00,,,0.00,284.000000,,2013-04-27 22:32:00,
2013-04-27 17:42:00,77.0,66.0,-100.00,SSE,163,7.0,16.0,70,0.00,,,0.00,284.000000,,2013-04-27 22:42:00,
2013-04-27 17:52:00,77.0,66.0,-100.00,SSE,163,7.0,16.0,70,0.00,,,0.00,284.000000,,2013-04-27 22:52:00,
2013-04-27 18:02:00,77.0,66.0,-100.00,SSE,163,7.0,16.0,70,0.00,,,0.00,284.000000,,2013-04-27 23:02:00,
2013-04-27 18:32:00,74.0,66.0,-100.00,South,170,7.0,13.0,77,0.00,,,0.00,93.000000,,2013-04-27 23:32:00,
2013-04-27 18:42:00,74.0,66.0,-100.00,South,170,7.0,13.0,77,0.00,,,0.00,93.000000,,2013-04-27 23:42:00,
2013-04-27 18:52:00,74.0,66.0,-100.00,South,170,7.0,13.0,77,0.00,,,0.00,93.000000,,2013-04-27 23:52:00,
2013-04-27 19:01:00,74.0,66.0,-100.00,South,170,7.0,13.0,77,0.00,,,0.00,93.000000,,2013-04-28 00:01:00,
2013-04-27 20:32:00,70.0,66.0,-100.00,WSW,242,4.0,8.0,88,-99.99,,,0.00,5.000000,,2013-04-28 01:32:00,
2013-04-27 20:42:00,70.0,66.0,-100.00,WSW,242,4.0,8.0,88,-99.99,,,0.00,5.000000,,2013-04-28 01:42:00,
2013-04-27 20:52:00,70.0,66.0,-100.00,WSW,242,4.0,8.0,88,-99.99,,,0.00,5.000000,,2013-04-28 01:52:00,
2013-04-27 21:02:00,70.0,66.0,-100.00,WSW,242,4.0,8.0,88,-99.99,,,0.00,5.000000,,2013-04-28 02:02:00,
2013-04-27 21:32:00,70.0,67.0,-100.00,South,191,6.0,10.0,91,0.00,,,0.00,0.000000,,2013-04-28 02:32:00,
2013-04-27 21:42:00,70.0,67.0,-100.00,South,191,6.0,10.0,91,0.00,,,0.00,0.000000,,2013-04-28 02:42:00,
2013-04-27 21:52:00,70.0,67.0,-100.00,South,191,6.0,10.0,91,0.00,,,0.00,0.000000,,2013-04-28 02:52:00,
2013-04-27 22:01:00,70.0,67.0,-100.00,South,191,6.0,10.0,91,0.00,,,0.00,0.000000,,2013-04-28 03:01:00,
2013-04-27 22:33:00,70.0,66.0,-100.00,South,175,9.0,15.0,87,0.00,,,0.00,0.000000,,2013-04-28 03:33:00,
2013-04-27 22:43:00,70.0,66.0,-100.00,South,175,9.0,15.0,87,0.00,,,0.00,0.000000,,2013-04-28 03:43:00,
2013-04-27 22:53:00,70.0,66.0,-100.00,South,175,9.0,15.0,87,0.00,,,0.00,0.000000,,2013-04-28 03:53:00,
2013-04-27 23:02:00,70.0,66.0,-100.00,South,175,9.0,15.0,87,0.00,,,0.00,0.000000,,2013-04-28 04:02:00,
2013-04-27 23:32:00,69.0,66.0,-100.00,SSE,168,8.0,13.0,89,0.00,,,0.00,0.000000,,2013-04-28 04:32:00,
2013-04-27 23:43:00,69.0,66.0,-100.00,SSE,168,8.0,13.0,89,0.00,,,0.00,0.000000,,2013-04-28 04:43:00,
2013-04-27 23:53:00,69.0,66.0,-100.00,SSE,168,8.0,13.0,89,0.00,,,0.00,0.000000,,2013-04-28 04:53:00,